カタログに戻る

CZ-4 DEB

運用中SSO
NORAD 20864·DEBRIS·🇨🇳 China

打ち上げ Sep 3, 1990 から Taiyuan Satellite Launch Center

Loading…

次のパス (今後24時間)

TLE

最新Source: Space-Track

元期: Sep 14, 2026, 10:24 UTC

1 20864U 90081AC  26257.43400970  .00000678  00000-0  43288-3 0  9996
2 20864  98.8568 330.6920 0066118 323.1342  96.2789 14.05882029832271

AllMySatでCZ-4 DEBをリアルタイム追跡

Download on the App Store